Le nostre stazioni meteo in Italia

Pubblicità
Il mio iltempo24.it
Capo Caccia, Italia (16522): Temperatura & dewpoint: 30.06.2020 02:00:00 - 06.07.2020 02:00:00 (CEST)Capo Caccia, Italia (16522): velocità del vento: 30.06.2020 02:00:00 - 06.07.2020 02:00:00 (CEST)Capo Caccia, Italia (16522): direzione del vento: 30.06.2020 02:00:00 - 06.07.2020 02:00:00 (CEST)Capo Caccia, Italia (16522): reduced air pressure: 30.06.2020 02:00:00 - 06.07.2020 02:00:00 (CEST)Capo Caccia, Italia (16522): visibility: 30.06.2020 02:00:00 - 06.07.2020 02:00:00 (CEST)Capo Caccia, Italia (16522): ore di luce: 30.06.2020 02:00:00 - 06.07.2020 02:00:00 (CEST)
Data & Tempo tt [°C] td [°C] ff [km/h] ff [kn] dd ppp [hPa] vv [km] sd [min]
06.07.2020 02:00:00 - - - - - - - -
06.07.2020 01:00:00 19,6 17,7 8 4 S 1015,0 20 -
06.07.2020 00:00:00 20,0 19,0 0 0 N 1014,9 20 -
05.07.2020 23:00:00 20,4 19,4 0 0 N 1014,7 20 -
05.07.2020 22:00:00 20,6 19,8 0 0 N 1014,7 20 -
05.07.2020 21:00:00 21,0 20,0 0 0 N 1014,7 20 -
05.07.2020 20:00:00 21,2 20,0 11 6 SO 1015,1 20 60
05.07.2020 19:00:00 22,4 20,1 5 3 ONO 1015,5 20 60
05.07.2020 18:00:00 22,4 19,8 9 5 ONO 1015,8 20 60
05.07.2020 17:00:00 23,0 19,6 8 4 O 1016,4 20 60
05.07.2020 16:00:00 22,6 19,6 11 6 O 1016,6 20 60
05.07.2020 15:00:00 22,6 20,0 11 6 SO 1017,1 20 60
05.07.2020 14:00:00 22,4 21,0 13 7 SO 1017,6 20 60
05.07.2020 13:00:00 23,4 20,9 13 7 SO 1017,5 20 60
05.07.2020 12:00:00 23,4 20,2 9 5 SO 1017,5 20 60
05.07.2020 11:00:00 22,2 19,9 8 4 OSO 1017,6 20 60
05.07.2020 10:00:00 21,8 19,7 5 3 O 1017,7 20 60
05.07.2020 09:00:00 21,6 19,9 8 4 SSO 1017,7 20 60
05.07.2020 08:00:00 20,0 18,1 0 0 N 1017,8 20 30
05.07.2020 07:00:00 20,0 18,3 9 5 ONO 1017,8 20 30
05.07.2020 06:00:00 19,4 17,7 8 4 OSO 1017,9 20 0
05.07.2020 05:00:00 19,6 17,9 0 0 N 1017,8 15 -
05.07.2020 04:00:00 19,8 18,1 0 0 N 1017,8 20 -
05.07.2020 03:00:00 20,0 18,3 9 5 ONO 1018,1 15 -
05.07.2020 02:00:00 20,0 19,0 15 8 ONO 1018,1 15 -
05.07.2020 01:00:00 20,0 18,7 15 8 - 1018,0 15 -
05.07.2020 00:00:00 20,0 18,7 15 8 ONO 1018,0 15 -
04.07.2020 23:00:00 20,0 19,0 18 10 ONO 1018,0 15 -
04.07.2020 22:00:00 20,0 19,2 18 10 ONO 1018,0 15 -
04.07.2020 21:00:00 20,6 19,8 15 8 ONO 1017,5 20 18
04.07.2020 20:00:00 21,2 19,5 18 10 ONO 1017,1 20 60
04.07.2020 19:00:00 22,0 20,7 21 11 ONO 1017,0 20 60
04.07.2020 18:00:00 22,0 20,3 22 12 ONO 1017,0 20 60
04.07.2020 17:00:00 22,6 20,9 22 12 ONO 1017,0 20 60
04.07.2020 16:00:00 22,8 21,1 28 15 NNO 1017,0 20 60
04.07.2020 15:00:00 22,6 20,9 22 12 ONO 1017,2 20 60
04.07.2020 14:00:00 23,0 19,8 24 13 ONO 1017,0 20 60
04.07.2020 13:00:00 23,0 17,2 24 13 ONO 1015,8 20 60
04.07.2020 12:00:00 22,0 19,9 22 12 NO 1015,6 20 60
04.07.2020 11:00:00 21,0 19,3 26 14 ONO 1015,7 20 12
04.07.2020 10:00:00 20,4 19,6 28 15 O 1015,7 20 0
04.07.2020 09:00:00 20,4 18,2 26 14 O 1015,8 20 30
04.07.2020 08:00:00 20,0 18,3 29 16 ONO 1015,6 20 0
04.07.2020 07:00:00 20,4 18,2 34 18 O 1015,0 20 -
04.07.2020 06:00:00 21,0 17,8 34 18 O 1015,0 20 -
04.07.2020 05:00:00 21,0 16,6 31 17 O 1015,0 20 -
04.07.2020 04:00:00 21,0 17,4 28 15 O 1015,7 20 -
04.07.2020 03:00:00 20,8 19,1 28 15 ONO 1015,7 20 -
04.07.2020 02:00:00 20,8 19,6 24 13 O 1015,9 20 -
04.07.2020 01:00:00 21,0 18,2 21 11 O 1016,3 20 -
04.07.2020 00:00:00 - - - - - - - -
03.07.2020 23:00:00 21,0 16,8 22 12 ONO 1016,4 20 -
03.07.2020 22:00:00 21,0 16,2 21 11 NO 1015,6 20 -
03.07.2020 21:00:00 21,4 17,6 18 10 NO 1015,5 20 -
03.07.2020 20:00:00 21,4 16,8 21 11 NO 1014,6 20 60
03.07.2020 19:00:00 22,0 18,0 24 13 NNO 1014,6 20 60
03.07.2020 18:00:00 22,2 18,6 22 12 NNO 1014,6 20 60
03.07.2020 17:00:00 22,4 18,6 26 14 NO 1014,5 20 60
03.07.2020 16:00:00 23,6 17,8 29 16 NNO 1014,5 20 60
03.07.2020 15:00:00 24,8 19,6 18 10 NO 1014,4 20 60
03.07.2020 14:00:00 23,8 16,6 24 13 NNO 1014,4 20 60
03.07.2020 13:00:00 24,2 20,1 26 14 NNO 1014,4 20 60
03.07.2020 12:00:00 23,8 18,0 26 14 NO 1014,1 20 60
03.07.2020 11:00:00 23,8 18,9 21 11 NO 1013,7 20 60
03.07.2020 10:00:00 23,4 20,5 18 10 ONO 1013,7 20 60
03.07.2020 09:00:00 22,8 20,9 13 7 NNO 1013,2 15 42
03.07.2020 08:00:00 22,0 20,1 16 9 ONO 1012,8 15 6
03.07.2020 07:00:00 22,0 19,7 9 5 O 1012,6 15 12
03.07.2020 06:00:00 22,0 19,7 16 9 ONO 1012,5 20 0
03.07.2020 05:00:00 22,0 19,7 11 6 ONO 1012,5 20 -
03.07.2020 04:00:00 22,0 20,3 21 11 ONO 1012,5 20 -
03.07.2020 03:00:00 22,0 20,3 13 7 NNO 1012,5 20 -
03.07.2020 02:00:00 22,2 20,3 13 7 NO 1012,7 20 -
03.07.2020 01:00:00 22,2 20,5 9 5 NNO 1012,7 20 -
03.07.2020 00:00:00 22,2 20,5 9 5 NNO 1012,4 20 -
02.07.2020 23:00:00 22,4 20,7 11 6 NNO 1012,4 20 -
02.07.2020 22:00:00 23,2 22,4 11 6 NNO 1012,2 20 -
02.07.2020 21:00:00 24,2 23,2 8 4 NNO 1012,1 20 -
02.07.2020 20:00:00 24,2 21,9 11 6 NNO 1012,1 20 60
02.07.2020 19:00:00 24,0 21,9 13 7 NO 1012,1 20 60
02.07.2020 18:00:00 24,2 23,0 26 14 ONO 1016,3 20 60
02.07.2020 17:00:00 25,0 23,6 29 16 ONO 1012,2 20 60
02.07.2020 16:00:00 25,6 23,5 16 9 NNO 1012,1 20 60
02.07.2020 15:00:00 25,0 23,2 15 8 NNO 1012,4 20 60
02.07.2020 14:00:00 25,0 22,9 15 8 NNO 1012,4 20 60
02.07.2020 13:00:00 25,0 24,0 13 7 NO 1012,4 15 60
02.07.2020 12:00:00 25,0 22,9 16 9 NO 1012,4 15 60
02.07.2020 11:00:00 25,0 23,6 13 7 NO 1012,1 15 60
02.07.2020 10:00:00 25,0 22,3 8 4 NO 1011,5 15 60
02.07.2020 09:00:00 24,0 21,7 8 4 NNO 1011,9 15 60
02.07.2020 08:00:00 23,0 20,9 5 3 NNO 1011,6 12 18
02.07.2020 07:00:00 22,4 20,3 4 2 ENE 1011,4 8 0
02.07.2020 06:00:00 22,2 20,1 8 4 E 1011,0 8 0
02.07.2020 05:00:00 22,4 19,4 5 3 E 1011,0 12 -
02.07.2020 04:00:00 22,6 19,6 8 4 ESE 1011,1 15 0
02.07.2020 03:00:00 22,6 19,8 13 7 SSE 1011,1 18 -
02.07.2020 02:00:00 23,0 20,2 11 6 S 1011,2 18 -
02.07.2020 01:00:00 23,8 20,9 18 10 S 1011,5 18 0
02.07.2020 00:00:00 24,6 23,2 21 11 S 1011,2 18 0
01.07.2020 23:00:00 24,8 20,1 22 12 SSE 1011,1 18 0
01.07.2020 22:00:00 24,2 21,5 11 6 SE 1011,0 20 0
01.07.2020 21:00:00 26,4 21,8 5 3 E 1010,8 20 18
01.07.2020 20:00:00 27,6 22,1 5 3 OSO 1011,1 30 60
01.07.2020 19:00:00 28,2 21,7 9 5 O 1011,0 30 60
01.07.2020 18:00:00 29,0 20,5 18 10 NO 1010,9 30 60
01.07.2020 17:00:00 31,0 17,7 18 10 OSO 1011,0 30 60
01.07.2020 16:00:00 33,0 19,1 9 5 O 1011,0 30 60
01.07.2020 15:00:00 34,0 17,7 5 3 O 1010,8 30 60
01.07.2020 14:00:00 33,6 19,3 8 4 OSO 1011,5 20 60
01.07.2020 13:00:00 35,0 18,6 11 6 NE 1011,5 20 60
01.07.2020 12:00:00 33,6 18,5 13 7 NE 1011,8 20 60
01.07.2020 11:00:00 31,0 20,0 16 9 NE 1011,9 20 60
01.07.2020 10:00:00 29,8 20,1 16 9 NE 1012,2 20 60
01.07.2020 09:00:00 28,0 20,0 11 6 NNE 1012,1 20 60
01.07.2020 08:00:00 26,2 21,9 8 4 NNE 1012,3 20 18
01.07.2020 07:00:00 23,6 20,0 8 4 NE 1012,5 20 -
01.07.2020 06:00:00 23,0 -30,0 8 4 NE 1012,4 20 -
01.07.2020 05:00:00 23,2 20,9 8 4 NNE 1012,9 20 -
01.07.2020 04:00:00 23,2 20,7 8 4 NNE 1013,3 20 -
01.07.2020 03:00:00 22,8 20,1 11 6 NE 1013,4 20 -
01.07.2020 02:00:00 22,8 20,7 11 6 NE 1013,8 20 -
01.07.2020 01:00:00 22,8 20,7 11 6 NE 1013,9 20 -
01.07.2020 00:00:00 23,6 23,3 9 5 NNE 1013,8 20 -
30.06.2020 23:00:00 23,8 22,4 9 5 NNO 1013,7 20 -
30.06.2020 22:00:00 24,2 21,9 11 6 NO 1013,4 20 -
30.06.2020 21:00:00 25,0 22,7 9 5 NNO 1013,3 20 -
30.06.2020 20:00:00 25,0 22,3 13 7 NO 1013,3 20 60
30.06.2020 19:00:00 25,6 22,5 15 8 ONO 1013,5 20 60
30.06.2020 18:00:00 26,6 24,1 15 8 NO 1014,0 20 60
30.06.2020 17:00:00 22,0 18,4 16 9 ONO 1014,5 20 60
30.06.2020 16:00:00 26,0 23,1 16 9 O 1014,2 20 60
30.06.2020 15:00:00 26,0 23,3 16 9 ONO 1014,2 20 60
30.06.2020 14:00:00 25,6 23,8 11 6 ONO 1014,3 20 60
30.06.2020 13:00:00 25,6 23,8 15 8 ONO 1014,3 20 60
30.06.2020 12:00:00 24,6 23,2 11 6 O 1014,3 20 60
30.06.2020 11:00:00 24,4 23,0 9 5 SO 1014,4 20 60
30.06.2020 10:00:00 23,6 22,2 5 3 O 1014,4 20 60
30.06.2020 09:00:00 23,4 22,2 4 2 O 1014,5 20 60
30.06.2020 08:00:00 23,2 21,5 4 2 NNO 1014,5 20 60
30.06.2020 07:00:00 22,2 20,8 5 3 NO 1014,6 20 60
30.06.2020 06:00:00 22,2 20,8 5 3 NNO 1014,6 20 -
30.06.2020 05:00:00 22,4 21,0 9 5 NNO 1014,5 20 -
30.06.2020 04:00:00 22,6 21,4 8 4 NNO 1014,5 20 -
30.06.2020 03:00:00 23,0 21,3 8 4 ONO 1015,0 20 -
30.06.2020 02:00:00 23,2 21,5 8 4 ONO 1015,0 20 -

tt = Temperatura
td = dewpoint
ff = velocità del vento
dd = direzione del vento
ppp = reduced air pressure
vv = visibility
sd = ore di luce

Stazioni seguenti

WeatherPro
AMSI
MeteoEarth